SINISTER 7 ULTRA + RELAY 2012                                        
Results - All Splits                                        
Jump To:                                         
Male Solo | Female Solo | Overall Solo                                        
Male Team | Mixed Team | Female Team | Overall Team                                        
Leg 1 | Leg 2 | Leg 3 | Leg 4 | Leg 5 | Leg 6 | Leg 7                                        
                                         
NA = Not Available | UNR = Unranked Finisher | NFT = No Finish Time Recorded                                        
DQ = Disqualified | DNF = Did Not Finish                                            
                                         
LEG 1 SPLITS                                        
RANK BIB NAME CAT TA1                                        
1 33 Redline Overlords Male 1:07:27                                        
2 138 Vertical Runner Mixed 1:09:17                                        
3 202 Core Models Male 1:09:53                                        
4 123 Powered by Cookies Mixed 1:13:37
5 141 RC Wetaskiwin Tigers Male 1:14:32
6 65 Aerobic Power Male 1:15:52
7 149 The Justice League Mixed 1:17:08
8 89 Jeff Hunter Male 1:17:33
9 93 Jack Cook Male 1:18:47
10 3 Mike Hamilton Male 1:18:54
11 183 Fast Trax Trail Team Mixed 1:19:38
12 28 Rhymes With Bucket Mixed 1:19:48
13 163 Fresh from Rehab Mixed 1:20:14
14 156 WTF's Male 1:20:29
15 106 Laval St Germain Male 1:20:31
16 13 Devin Featherstone Male 1:20:34
17 100 Simon Donato Male 1:20:55
18 16 Rock Gear Mixed 1:21:35
19 103 Adam Hill Male 1:22:10
20 59 Oleg Tabelev Male 1:22:22
21 161 SS Mixed 1:23:10
22 42 The Great White North Mixed 1:24:18
23 38 Tonight on MacGyver Mixed 1:25:43
24 23 Darin Bentley Male 1:25:47
25 23 COUGAR BAIT Male 1:28:00
26 79 Alfred Barr Male 1:28:47
27 72 The Thundering Herd Mixed 1:29:32
28 195 So You Think You Can Run? Mixed 1:30:02
29 6 Speedy Beavers Female 1:30:13
30 43 Peter Taylor Male 1:30:48
31 116 Joe Huising Male 1:31:58
32 108 Gary Poliquin Male 1:32:00
33 163 Dawn Hamel Female 1:32:15
34 10 Michael Heath Male 1:32:22
35 8 Andrew Forrest Male 1:32:24
36 50 Well Hungarians Male 1:32:33
37 18 Rod Chiasson Male 1:32:40
38 153 Dynastream Seven Mixed 1:32:49
39 13 Got Nitro? Mixed 1:33:03
40 186 Rocks + Logs (aka Shelley made me do it) Mixed 1:33:05
41 66 Scrambled Legs and Achin' Mixed 1:33:18
42 93 Mountian MAZness Mixed 1:33:25
43 109 The Animals Mixed 1:33:32
44 46 Mike Moore Male 1:34:04
45 95 The Dashing Dromaeosaurs Mixed 1:34:20
46 119 Rum Runners Mixed 1:34:22
47 36 Andrew Skarsgard Male 1:34:44
48 143 Total recall Mixed 1:34:44
49 115 Marc Hayward Male 1:35:01
50 181 Dirt Divas Female 1:35:03
51 3 Ponoka Path Pounders V Mixed 1:35:11
52 127 Kevin Matrosovs Male 1:35:55
53 160 caroline toews Female 1:36:22
54 116 The Cruisettes Female 1:36:47
55 111 Synergy Female 1:36:54
56 108 Broken Parts Female 1:36:56
57 98 Summit Sisters Female 1:37:00
58 86 Neil Rybak Male 1:37:02
59 85 Hjalmar Kristiansen Male 1:37:06
60 7 Reid Roberts Male 1:37:10
61 165 Jude Ultra Female 1:37:15
62 65 Mevlut Kont Male 1:37:19
63 77 Pure Insanity Mixed 1:37:25
64 105 Run (through the) Forest, Run! Mixed 1:37:39
65 26 Gluttons for Punishment-Part I Mixed 1:37:46
66 147 Fast and Furious Mixed 1:37:54
67 5 Midnight Express Mixed 1:37:56
68 67 Wayne Gaudet Male 1:37:57
69 89 Mister's, blisters & one sister Mixed 1:38:03
70 50 Russell McWillam Male 1:38:14
71 51 Suffering From Insanity Mixed 1:38:18
72 159 Go Go Girls Female 1:38:24
73 150 The Cruisers Male 1:38:38
74 102 Runners With Attitude Mixed 1:38:43
75 166 Playground Bullies Male 1:38:46
76 74 Peter Block Male 1:38:57
77 57 Fergus Mackenzie Male 1:39:12
78 27 Paul Dube Male 1:39:16
79 54 Jason Boyd Male 1:39:28
80 62 Ezequiel Quian Male 1:39:31
81 51 Craig Strain Male 1:39:33
82 129 Finewiners Male 1:39:35
83 48 rick bekker Male 1:39:36
84 14 Alan Lam Male 1:39:41
85 142 Lori Soderberg Female 1:39:45
86 193 Team Clarke Male 1:39:48
87 117 teck's mechs Male 1:39:59
88 168 Tri-umph over Sinister 7 Mixed 1:40:04
89 80 A Scots, A Paddy and A Cloggie Mixed 1:40:07
90 9 Chad Stiles Male 1:40:09
91 143 Abi Moore Female 1:40:13
92 172 Bear Naked Male 1:40:13
93 20 Allan Klassen Male 1:40:17
94 92 Scott Donatelli Male 1:40:27
95 8 I Thought This Was A 5K Mixed 1:40:29
96 150 Naomi Humenny Female 1:40:49
97 153 Jenny Philip Female 1:41:12
98 88 Scenic Route My Ass! Mixed 1:41:16
99 42 Ken Glover Male 1:41:22
100 190 Tri Girls Female 1:41:24
101 12 robert krushel Male 1:41:45
102 188 Sin Sisters Female 1:41:51
103 196 Crazy Soles Female 1:41:59
104 152 kerri treherne Female 1:42:07
105 145 FORMULA 7 Mixed 1:42:08
106 124 Ron Duna Male 1:42:23
107 164 F.E.A.R Mixed 1:42:37
108 44 SOF Girls Gone Trail 2012 Female 1:42:45
109 59 We are sofa king lost Danuta Mixed 1:42:58
110 184 J team Female 1:43:02
111 94 Joel Templeman Male 1:43:04
112 77 Steve Baker Male 1:43:20
113 125 Jason Elson Male 1:43:26
114 28 James Gardner Male 1:43:34
115 118 Shawn Wallich Male 1:43:40
116 201 1 Canadian Mechanized Brigade Group Male 1:43:45
117 119 Terry Schwengler Male 1:43:48
118 87 Richard Raymond Male 1:43:51
119 175 Fuelled by Beer Mixed 1:43:51
120 151 Go Figure Female 1:43:52
121 52 Jon McCully Male 1:43:54
122 109 Brent Saunders Male 1:44:19
123 169 Crash Test Dummies do Sin 7 Mixed 1:44:35
124 120 The Running Dead Mixed 1:44:47
125 121 RWA V Mixed 1:44:51
126 69 Artur Pich Male 1:44:52
127 81 Fringe Monkeys Mixed 1:44:53
128 146 Margaret Li Female 1:44:57
129 156 Michelle Annandale Female 1:45:04
130 15 Greg Sumka Male 1:45:13
131 34 Team Redundancy Team Mixed 1:45:27
132 170 S-Club 7 Female 1:45:38
133 167 Dynamic Duo Mixed 1:45:41
134 205 Pheidippides Children Mixed 1:45:46
135 137 Sinnin' All Night Long Mixed 1:45:48
136 174 Dangerous Divas Female 1:45:49
137 159 joanne schmidt Female 1:46:02
138 14 Born to Run like we stole something Mixed 1:46:23
139 198 4 Fabulous Frolicking Females! Female 1:46:44
140 160 6 Chicks and a Stork Mixed 1:46:50
141 17 Twinkle Toes Mixed 1:46:55
142 21 Smooth Operators Male 1:47:00
143 70 JIM MITCHELL Male 1:47:19
144 47 Every Day We're Shufflin' Mixed 1:47:22
145 97 Collin Woehl Male 1:47:23
146 37 Jonathan Davidow Male 1:47:27
147 120 ward beemer Male 1:47:31
148 157 Stacey Shand Female 1:47:35
149 84 Devon Kiernan Male 1:47:38
150 149 Tamara Zagustin Female 1:47:46
151 103 Trail Nuts Mixed 1:47:58
152 4 hiroshige watanabe Male 1:48:00
153 44 Alan Barry Male 1:48:06
154 24 Rick Minett Male 1:48:10
155 31 Jay Klause Male 1:48:13
156 134 Carolyn Fitzsimmons Female 1:48:16
157 58 Kevin Noble Male 1:48:21
158 162 Ultra Dumb Mixed 1:48:22
159 61 Mark Naphin Male 1:48:25
160 68 Suck It Up Princesses Female 1:48:29
161 61 Cookes Recipie For Disaster Mixed 1:48:33
162 60 Coconut Bangers' Ball Male 1:48:35
163 70 Hill Humpers Mixed 1:48:49
164 60 Adrian Smith Male 1:48:53
165 84 Sculpt Conditioning Team Alpha Mixed 1:49:01
166 11 Jason Cox Male 1:49:06
167 20 Misters, Sisters, and Blisters Mixed 1:49:16
168 67 Brandy Bunch Mixed 1:49:21
169 9 I got 99 problems but a hill ain't one Mixed 1:49:36
170 2 David Coulombe Male 1:49:44
171 46 Collective Soles Mixed 1:50:00
172 154 Keri Bowzaylo Female 1:50:53
173 55 Nerds and Ninjas Mixed 1:50:59
174 95 Gary Williams Male 1:51:01
175 91 Stephen VanDenburgh Male 1:51:20
176 48 EH3 Again Mixed 1:51:40
177 90 Marcelo Lafuente Male 1:51:48
178 107 RWA IV Mixed 1:52:01
179 96 RWA II Mixed 1:52:12
180 144 Christine Reid Female 1:52:17
181 90 Real Housewives of Hastings Lake Female 1:52:43
182 127 RWA - Fortitude Mixed 1:52:47
183 30 SICK SIX! Mixed 1:53:00
184 19 Ryan Peebles Male 1:53:10
185 45 Paul Pichurski Male 1:53:13
186 36 Team to be named later Mixed 1:53:16
187 72 Todd Bailey Male 1:53:18
188 135 RWA - Pants Party Mixed 1:53:18
189 130 Linda Trinh Female 1:53:26
190 136 TOTAL PACKAGE Mixed 1:53:27
191 71 George Duffy Male 1:53:47
192 54 Allwest Recycled Runners Mixed 1:53:49
193 200 Buck Mountain Central School Mixed 1:54:03
194 189 The Possibilities of 6 Mixed 1:54:07
195 179 The Worst of Sinners Mixed 1:54:10
196 35 Dan Wall Male 1:54:12
197 25 Sweet Beaver Male 1:54:13
198 161 Susan MacAlister Female 1:54:18
199 91 Honey Badgers Male 1:54:26
200 11 mc casbn Mixed 1:54:29
201 75 Ultra girls Female 1:54:32
202 18 Something Wicked This Way Runs Mixed 1:54:39
203 176 It's not a Picnic, You Know! Mixed 1:54:53
204 43 Wii Not Fit Mixed 1:55:00
205 99 R We Nuts? Mixed 1:55:21
206 146 SOF EDM Platoon 3 Mixed 1:55:29
207 39 Don Wheatcroft Male 1:55:33
208 129 Carol Bradbury Female 1:55:43
209 26 Glenn Hughes Male 1:55:46
210 131 SOF EDM Platoon 2 Mixed 1:56:01
211 2 Your Pace or Mine Mixed 1:56:04
212 73 Mark Bentum Male 1:56:12
213 128 Teck Mixed 1:56:19
214 122 Rauschning Mixed 1:56:33
215 141 Mia Atienza Female 1:56:38
216 19 SOF Edmonton Mixed 1:56:40
217 140 Liz Decario Female 1:56:41
218 133 Lucky Seven Female 1:56:58
219 154 Two Sinners and the Newbies Mixed 1:57:01
220 88 Colin McManus Male 1:57:12
221 191 Team Boots to Asses! Mixed 1:57:44
222 192 Glacial Erratics Female 1:58:00
223 199 Seven Sinister Survivors Mixed 1:58:14
224 64 Rod Giacchetta Male 1:58:33
225 41 Addicted to Dihydrogen Monoxide Mixed 1:58:34
226 136 Cheryl Welsh Female 1:58:38
227 45 Running Ravens Mixed 1:58:58
228 158 Debbie Harksen Female 1:59:11
229 10 1step 2step breathe repeat Mixed 1:59:21
230 123 Erik Allen Male 1:59:26
231 112 Darcy Venne Male 1:59:43
232 56 Mike Bachinsky Male 1:59:46
233 194 Team Awesome Mixed 1:59:53
234 124 Sweet Swass Mixed 1:59:56
235 107 Adam Yurkowski Male 2:00:03
236 76 John Barron Male 2:00:04
237 21 Scott Simpson Male 2:00:07
238 82 Scott Villeneuve Male 2:00:13
239 122 Mike Treloar Male 2:00:17
240 83 JE Walsh Male 2:00:21
241 132 1 Svc Bn 2 Mixed 2:00:22
242 96 Jason Hazlett Male 2:00:39
243 130 Seven Super Stoked Sinners Seriously Shred Sneaks Mixed 2:00:52
244 57 Estrogen Rush Female 2:00:57
245 12 EH3 Mixed 2:01:00
246 86 On The Rocks Mixed 2:01:06
247 177 I thought this was a bike race! Female 2:01:17
248 114 Really Really Ridiculously Good Looking People Mixed 2:01:27
249 22 A Murder of Runners Mixed 2:01:34
250 69 Sculpt Conditioning Team Bravo Mixed 2:01:39
251 58 Witless Tardy Futile Mixed 2:01:48
252 29 Arthur Charbonneau Male 2:01:52
253 182 Spider Monkies Mixed 2:01:59
254 53 The Dirty Half Dozen + One Mixed 2:02:18
255 100 Sprinters Walkers and Trash Talkers Mixed 2:02:24
256 82 Republic of Buckle Mixed 2:02:53
257 24 Captain Miserable and the Creeps Mixed 2:03:11
258 126 Off the Rocker Mixed 2:03:15
259 39 JBF - Misters, Sisters & Blisters Mixed 2:03:18
260 71 Spirit Runners Mixed 2:03:20
261 66 Granden Bertrand Male 2:04:12
262 30 shawn haarstad Male 2:04:15
263 32 Sinister Skirts Female 2:04:21
264 38 Khalid Miah Male 2:04:42
265 99 Eric Sherritt Male 2:04:47
266 117 Ricky Jarvis Male 2:04:52
267 80 Jason Tomlinson Male 2:04:56
268 167 Roger Sylvester Male 2:05:00
269 110 BEARLY SOBER Mixed 2:05:01
270 162 Jackie Zimmerman Female 2:05:06
271 15 Sinister Attack Squad Mixed 2:05:12
272 6 Douglas MacEachern Male 2:05:24
273 32 Scott Hutton Male 2:05:31
274 5 Steve Burrows Male 2:05:34
275 139 7wonderz Female 2:05:50
276 134 Lame Ducks Mixed 2:05:52
277 55 Marcel LeBlanc Male 2:06:08
278 145 Lori Lunty Female 2:06:28
279 40 Doug Brady Male 2:06:33
280 1 JBF - The Fast and the Delirious Mixed 2:06:35
281 47 Travis Braddell Male 2:06:38
282 63 JBF - Inglorious Fastards Mixed 2:06:42
283 102 Cliff Culbert Male 2:07:37
284 140 Can You See My Swass Mixed 2:08:02
285 111 Trevor Wiltzen Male 2:08:19
286 31 Sure-footed flatlanders Mixed 2:08:25
287 131 Jenn Stronge Female 2:08:27
288 22 Matthew Kinzel Male 2:08:31
289 112 Queens of Insomnia Female 2:08:32
290 152 Kiss My Asphalt Mixed 2:08:51
291 33 Darren Nichols Male 2:09:01
292 73 Runners Anonymous Mixed 2:09:03
293 27 Team No Name Mixed 2:09:08
294 37 Twisted Blister Mixed 2:09:19
295 165 The Couilleys Mixed 2:09:22
296 101 WAR MACHINES! Mixed 2:09:25
297 125 The Scallywaggin' Rapscallions Mixed 2:09:31
298 35 Friends with Benefits Mixed 2:09:33
299 113 Sole Survivors Mixed 2:10:05
300 126 Clayton Halley Male 2:10:14
301 166 Kristin Zazelenchuk Female 2:10:34
302 97 Toque Mixed 2:10:37
303 79 Honey Badgers Mixed 2:10:56
304 87 Gluttons for Punishment - Part Two Mixed 2:11:01
305 135 Lisette Schermann Female 2:11:47
306 114 Brent Desjarlais Male 2:11:52
307 7 Forsyth and Sons Mixed 2:11:52
308 106 Fast Friars Mixed 2:12:07
309 173 Bloody Penguins Mixed 2:12:32
310 83 Run Forest Run! Mixed 2:13:13
311 52 Chicks on the fly Female 2:14:03
312 137 Melanie Bouchard Female 2:15:06
313 63 Marc Berube Male 2:15:09
314 118 The City Sinners Mixed 2:15:43
315 171 Next year we train.. Mixed 2:15:52
316 142 Wodzillas Female 2:16:11
317 68 Matthew Fischer Male 2:16:50
318 4 FFA Mixed 2:16:50
319 56 What Fresh Hell Is This Mixed 2:16:53
320 29 Tech Pro 2.0 Mixed 2:17:02
321 187 Beavers & Bucks Mixed 2:17:04
322 104 Maynard McInnis Male 2:17:19
323 164 Kirsten Bjornson Female 2:17:40
324 180 DreamRunners Mixed 2:18:31
325 76 Braindead Mixed 2:24:11
326 40 Peak Freaks Mixed 2:24:57
327 92 JBF - Victorious Secret Female 2:24:59
328 203 In my flippy floppies Mixed 2:27:10
329 178 Thank you Cochrane! Mixed 2:27:30
330 49 Fleet of Feet V Mixed 2:27:32
331 94 SOF EDM Platoon 1 Mixed 2:29:14
332 197 Running Wild: And Lovin' It Mixed 2:32:43
333 144 JBF Believers Female 2:32:58
334 78 One More Mile... Mixed 2:34:55
335 62 myasses dragon Mixed 2:35:24
336 85 Sutherly Flow Mixed 2:35:45
337 155 Love the Pain Mixed 2:53:52
         
LEG 3 SPLITS
RANK BIB NAME CAT TA3
1 138 Vertical Runner Mixed 2:36:16
2 16 Rock Gear Mixed 2:45:27
3 33 Redline Overlords Male 2:46:11
4 149 The Justice League Mixed 3:01:40
5 65 Aerobic Power Male 3:06:33
6 183 Fast Trax Trail Team Mixed 3:17:04
7 23 COUGAR BAIT Male 3:18:54
8 136 TOTAL PACKAGE Mixed 3:23:10
9 156 WTF's Male 3:24:57
10 130 Seven Super Stoked Sinners Seriously Shred Sneaks Mixed 3:25:39
11 6 Speedy Beavers Female 3:32:16
12 4 FFA Mixed 3:34:21
13 95 The Dashing Dromaeosaurs Mixed 3:38:37
14 111 Synergy Female 3:38:53
15 54 Allwest Recycled Runners Mixed 3:38:59
16 41 Addicted to Dihydrogen Monoxide Mixed 3:41:48
17 171 Next year we train.. Mixed 3:44:40
18 25 Sweet Beaver Male 3:46:52
19 119 Rum Runners Mixed 3:47:06
20 36 Team to be named later Mixed 3:47:24
21 23 Darin Bentley Male 3:48:02
22 117 teck's mechs Male 3:48:35
23 153 Dynastream Seven Mixed 3:50:49
24 38 Tonight on MacGyver Mixed 3:51:14
25 35 Friends with Benefits Mixed 3:53:34
26 8 I Thought This Was A 5K Mixed 3:53:54
27 5 Midnight Express Mixed 3:54:08
28 132 1 Svc Bn 2 Mixed 3:54:50
29 59 Oleg Tabelev Male 3:54:55
30 43 Wii Not Fit Mixed 3:55:30
31 120 The Running Dead Mixed 3:57:10
32 3 Mike Hamilton Male 3:57:24
33 60 Coconut Bangers' Ball Male 3:57:27
34 43 Peter Taylor Male 3:57:37
35 91 Honey Badgers Male 3:58:30
36 28 Rhymes With Bucket Mixed 3:59:59
37 188 Sin Sisters Female 4:00:31
38 89 Jeff Hunter Male 4:00:32
39 84 Sculpt Conditioning Team Alpha Mixed 4:01:32
40 22 A Murder of Runners Mixed 4:02:58
41 122 Rauschning Mixed 4:03:35
42 168 Tri-umph over Sinister 7 Mixed 4:04:33
43 19 SOF Edmonton Mixed 4:04:40
44 103 Adam Hill Male 4:06:36
45 198 4 Fabulous Frolicking Females! Female 4:06:59
46 123 Powered by Cookies Mixed 4:08:01
47 137 Sinnin' All Night Long Mixed 4:08:03
48 174 Dangerous Divas Female 4:08:12
49 77 Pure Insanity Mixed 4:09:05
50 100 Simon Donato Male 4:10:16
51 47 Every Day We're Shufflin' Mixed 4:11:33
52 116 The Cruisettes Female 4:12:09
53 66 Scrambled Legs and Achin' Mixed 4:12:39
54 116 Joe Huising Male 4:12:44
55 72 The Thundering Herd Mixed 4:14:53
56 10 Michael Heath Male 4:15:22
57 40 Peak Freaks Mixed 4:16:08
58 81 Fringe Monkeys Mixed 4:16:14
59 42 The Great White North Mixed 4:16:44
60 163 Fresh from Rehab Mixed 4:17:05
61 46 Mike Moore Male 4:17:31
62 106 Laval St Germain Male 4:17:47
63 8 Andrew Forrest Male 4:18:13
64 166 Playground Bullies Male 4:18:44
65 105 Run (through the) Forest, Run! Mixed 4:19:00
66 98 Summit Sisters Female 4:20:29
67 145 FORMULA 7 Mixed 4:21:26
68 134 Lame Ducks Mixed 4:21:44
69 169 Crash Test Dummies do Sin 7 Mixed 4:22:30
70 13 Devin Featherstone Male 4:22:43
71 100 Sprinters Walkers and Trash Talkers Mixed 4:23:26
72 128 Teck Mixed 4:24:57
73 119 Terry Schwengler Male 4:25:29
74 196 Crazy Soles Female 4:25:38
75 150 The Cruisers Male 4:25:59
76 205 Pheidippides Children Mixed 4:26:15
77 143 Total recall Mixed 4:26:17
78 62 myasses dragon Mixed 4:26:20
79 94 SOF EDM Platoon 1 Mixed 4:26:29
80 159 Go Go Girls Female 4:26:47
81 50 Well Hungarians Male 4:26:49
82 186 Rocks + Logs (aka Shelley made me do it) Mixed 4:26:55
83 195 So You Think You Can Run? Mixed 4:27:56
84 106 Fast Friars Mixed 4:28:03
85 110 BEARLY SOBER Mixed 4:28:25
86 89 Mister's, blisters & one sister Mixed 4:28:48
87 3 Ponoka Path Pounders V Mixed 4:30:15
88 152 Kiss My Asphalt Mixed 4:30:17
89 203 In my flippy floppies Mixed 4:30:34
90 199 Seven Sinister Survivors Mixed 4:30:50
91 202 Core Models Male 4:31:47
92 143 Abi Moore Female 4:32:45
93 13 Got Nitro? Mixed 4:33:07
94 135 RWA - Pants Party Mixed 4:33:40
95 118 Shawn Wallich Male 4:34:32
96 7 Reid Roberts Male 4:34:44
97 170 S-Club 7 Female 4:34:54
98 184 J team Female 4:35:05
99 103 Trail Nuts Mixed 4:35:40
100 90 Real Housewives of Hastings Lake Female 4:37:36
101 29 Tech Pro 2.0 Mixed 4:37:54
102 197 Running Wild: And Lovin' It Mixed 4:38:59
103 82 Republic of Buckle Mixed 4:39:17
104 121 RWA V Mixed 4:40:11
105 14 Alan Lam Male 4:40:13
106 10 1step 2step breathe repeat Mixed 4:40:26
107 7 Forsyth and Sons Mixed 4:40:52
108 18 Something Wicked This Way Runs Mixed 4:41:12
109 58 Witless Tardy Futile Mixed 4:43:42
110 46 Collective Soles Mixed 4:44:48
111 32 Sinister Skirts Female 4:45:33
112 181 Dirt Divas Female 4:45:34
113 93 Mountian MAZness Mixed 4:46:02
114 176 It's not a Picnic, You Know! Mixed 4:46:57
115 85 Sutherly Flow Mixed 4:47:47
116 79 Alfred Barr Male 4:47:51
117 114 Really Really Ridiculously Good Looking People Mixed 4:48:08
118 108 Broken Parts Female 4:48:28
119 189 The Possibilities of 6 Mixed 4:48:45
120 115 Marc Hayward Male 4:48:53
121 44 SOF Girls Gone Trail 2012 Female 4:49:26
122 68 Suck It Up Princesses Female 4:50:02
123 126 Off the Rocker Mixed 4:51:16
124 51 Suffering From Insanity Mixed 4:51:18
125 194 Team Awesome Mixed 4:51:43
126 86 On The Rocks Mixed 4:52:10
127 153 Jenny Philip Female 4:53:51
128 80 A Scots, A Paddy and A Cloggie Mixed 4:54:13
129 190 Tri Girls Female 4:54:19
130 163 Dawn Hamel Female 4:54:19
131 175 Fuelled by Beer Mixed 4:54:45
132 76 Braindead Mixed 4:55:12
133 67 Wayne Gaudet Male 4:55:32
134 69 Sculpt Conditioning Team Bravo Mixed 4:55:57
135 178 Thank you Cochrane! Mixed 4:55:58
136 37 Jonathan Davidow Male 4:56:01
137 9 Chad Stiles Male 4:56:15
138 107 RWA IV Mixed 4:56:44
139 101 WAR MACHINES! Mixed 4:56:46
140 108 Gary Poliquin Male 4:56:55
141 34 Team Redundancy Team Mixed 4:57:09
142 172 Bear Naked Male 4:57:49
143 149 Tamara Zagustin Female 4:57:49
144 162 Ultra Dumb Mixed 4:59:12
145 12 EH3 Mixed 5:00:04
146 109 The Animals Mixed 5:00:04
147 11 mc casbn Mixed 5:00:38
148 15 Greg Sumka Male 5:01:04
149 48 EH3 Again Mixed 5:01:11
150 113 Sole Survivors Mixed 5:01:33
151 165 The Couilleys Mixed 5:02:07
152 125 The Scallywaggin' Rapscallions Mixed 5:03:25
153 26 Gluttons for Punishment-Part I Mixed 5:03:33
154 78 One More Mile... Mixed 5:03:50
155 147 Fast and Furious Mixed 5:04:23
156 154 Two Sinners and the Newbies Mixed 5:04:28
157 24 Rick Minett Male 5:04:46
158 45 Running Ravens Mixed 5:05:41
159 157 Stacey Shand Female 5:06:23
160 79 Honey Badgers Mixed 5:06:47
161 187 Beavers & Bucks Mixed 5:07:31
162 146 SOF EDM Platoon 3 Mixed 5:07:47
163 160 caroline toews Female 5:08:20
164 57 Estrogen Rush Female 5:08:32
165 159 joanne schmidt Female 5:09:00
166 142 Wodzillas Female 5:09:08
167 99 R We Nuts? Mixed 5:09:40
168 193 Team Clarke Male 5:10:04
169 31 Sure-footed flatlanders Mixed 5:11:08
170 141 RC Wetaskiwin Tigers Male 5:12:03
171 182 Spider Monkies Mixed 5:12:08
172 1 JBF - The Fast and the Delirious Mixed 5:12:43
173 164 F.E.A.R Mixed 5:12:49
174 63 JBF - Inglorious Fastards Mixed 5:12:51
175 96 RWA II Mixed 5:13:41
176 27 Paul Dube Male 5:14:36
177 75 Ultra girls Female 5:15:18
178 86 Neil Rybak Male 5:15:30
179 201 1 Canadian Mechanized Brigade Group Male 5:15:38
180 127 Kevin Matrosovs Male 5:16:15
181 84 Devon Kiernan Male 5:16:18
182 107 Adam Yurkowski Male 5:17:04
183 180 DreamRunners Mixed 5:17:30
184 191 Team Boots to Asses! Mixed 5:17:33
185 129 Finewiners Male 5:19:24
186 49 Fleet of Feet V Mixed 5:21:38
187 118 The City Sinners Mixed 5:21:48
188 146 Margaret Li Female 5:22:23
189 30 SICK SIX! Mixed 5:22:25
190 36 Andrew Skarsgard Male 5:22:38
191 124 Sweet Swass Mixed 5:22:53
192 152 kerri treherne Female 5:23:17
193 58 Kevin Noble Male 5:23:37
194 97 Collin Woehl Male 5:23:58
195 67 Brandy Bunch Mixed 5:24:26
196 52 Chicks on the fly Female 5:24:57
197 192 Glacial Erratics Female 5:27:10
198 97 Toque Mixed 5:27:28
199 155 Love the Pain Mixed 5:28:42
200 20 Allan Klassen Male 5:29:16
201 44 Alan Barry Male 5:29:35
202 39 JBF - Misters, Sisters & Blisters Mixed 5:30:31
203 139 7wonderz Female 5:32:03
204 165 Jude Ultra Female 5:32:50
205 177 I thought this was a bike race! Female 5:33:21
206 99 Eric Sherritt Male 5:33:25
207 131 SOF EDM Platoon 2 Mixed 5:33:27
208 59 We are sofa king lost Danuta Mixed 5:33:41
209 53 The Dirty Half Dozen + One Mixed 5:34:39
210 37 Twisted Blister Mixed 5:35:40
211 11 Jason Cox Male 5:36:01
212 150 Naomi Humenny Female 5:36:02
213 85 Hjalmar Kristiansen Male 5:36:43
214 17 Twinkle Toes Mixed 5:37:00
215 141 Mia Atienza Female 5:37:13
216 51 Craig Strain Male 5:41:07
217 19 Ryan Peebles Male 5:42:49
218 20 Misters, Sisters, and Blisters Mixed 5:42:58
219 179 The Worst of Sinners Mixed 5:43:48
220 30 shawn haarstad Male 5:44:05
221 140 Can You See My Swass Mixed 5:44:06
222 173 Bloody Penguins Mixed 5:44:42
223 161 SS Mixed 5:46:07
224 90 Marcelo Lafuente Male 5:47:51
225 60 Adrian Smith Male 5:48:34
226 133 Lucky Seven Female 5:48:53
227 9 I got 99 problems but a hill ain't one Mixed 5:49:10
228 162 Jackie Zimmerman Female 5:49:15
229 95 Gary Williams Male 5:49:26
230 71 George Duffy Male 5:49:40
231 92 JBF - Victorious Secret Female 5:50:01
232 144 JBF Believers Female 5:50:03
233 61 Mark Naphin Male 5:50:11
234 24 Captain Miserable and the Creeps Mixed 5:51:35
235 48 rick bekker Male 5:51:54
236 39 Don Wheatcroft Male 5:51:56
237 142 Lori Soderberg Female 5:51:59
238 120 ward beemer Male 5:52:14
239 134 Carolyn Fitzsimmons Female 5:52:17
240 87 Richard Raymond Male 5:52:39
241 156 Michelle Annandale Female 5:53:39
242 69 Artur Pich Male 5:53:55
243 15 Sinister Attack Squad Mixed 5:55:06
244 50 Russell McWillam Male 5:56:22
245 94 Joel Templeman Male 5:57:02
246 92 Scott Donatelli Male 5:57:08
247 130 Linda Trinh Female 5:57:32
248 2 David Coulombe Male 5:57:53
249 62 Ezequiel Quian Male 5:58:24
250 88 Colin McManus Male 5:59:31
251 200 Buck Mountain Central School Mixed 5:59:50
252 12 robert krushel Male 6:00:16
253 64 Rod Giacchetta Male 6:01:34
254 71 Spirit Runners Mixed 6:02:18
255 22 Matthew Kinzel Male 6:02:44
256 91 Stephen VanDenburgh Male 6:06:07
257 129 Carol Bradbury Female 6:06:54
258 52 Jon McCully Male 6:08:21
259 32 Scott Hutton Male 6:09:11
260 76 John Barron Male 6:09:58
261 102 Runners With Attitude Mixed 6:10:09
262 74 Peter Block Male 6:11:39
263 140 Liz Decario Female 6:12:05
264 27 Team No Name Mixed 6:14:38
265 154 Keri Bowzaylo Female 6:14:50
266 125 Jason Elson Male 6:15:22
267 161 Susan MacAlister Female 6:15:31
268 5 Steve Burrows Male 6:15:43
269 83 JE Walsh Male 6:16:00
270 56 Mike Bachinsky Male 6:16:31
271 26 Glenn Hughes Male 6:17:52
272 56 What Fresh Hell Is This Mixed 6:18:20
273 117 Ricky Jarvis Male 6:19:31
274 144 Christine Reid Female 6:19:46
275 102 Cliff Culbert Male 6:21:53
276 82 Scott Villeneuve Male 6:22:50
277 93 Jack Cook Male 6:22:52
278 83 Run Forest Run! Mixed 6:24:23
279 112 Darcy Venne Male 6:24:47
280 131 Jenn Stronge Female 6:25:47
281 42 Ken Glover Male 6:26:45
282 73 Runners Anonymous Mixed 6:27:38
283 77 Steve Baker Male 6:28:11
284 127 RWA - Fortitude Mixed 6:28:26
285 123 Erik Allen Male 6:30:01
286 124 Ron Duna Male 6:30:37
287 28 James Gardner Male 6:30:39
288 2 Your Pace or Mine Mixed 6:33:25
289 33 Darren Nichols Male 6:33:47
290 122 Mike Treloar Male 6:35:26
291 151 Go Figure Female 6:36:28
292 167 Dynamic Duo Mixed 6:36:34
293 114 Brent Desjarlais Male 6:39:14
294 66 Granden Bertrand Male 6:40:00
295 70 Hill Humpers Mixed 6:40:15
296 96 Jason Hazlett Male 6:42:49
297 166 Kristin Zazelenchuk Female 6:42:53
298 87 Gluttons for Punishment - Part Two Mixed 6:45:50
299 55 Nerds and Ninjas Mixed 6:48:47
300 72 Todd Bailey Male 6:48:53
301 31 Jay Klause Male 6:51:59
302 167 Roger Sylvester Male 6:55:39
303 158 Debbie Harksen Female 6:56:05
304 136 Cheryl Welsh Female 6:58:13
305 38 Khalid Miah Male 6:59:48
306 47 Travis Braddell Male 7:00:24
307 40 Doug Brady Male 7:01:46
308 45 Paul Pichurski Male 7:06:14
309 61 Cookes Recipie For Disaster Mixed 7:08:22
310 111 Trevor Wiltzen Male 7:09:05
311 88 Scenic Route My Ass! Mixed 7:11:34
312 35 Dan Wall Male 7:16:24
313 137 Melanie Bouchard Female 7:23:36
314 21 Smooth Operators Male 7:41:34
315 21 Scott Simpson Male 7:52:43
316 73 Mark Bentum Male 7:54:06
317 112 Queens of Insomnia Female 8:03:47
318 145 Lori Lunty Female 8:19:30
319 80 Jason Tomlinson Male 8:42:56
         
LEG 4 SPLITS
RANK BIB NAME CAT TA4
1 138 Vertical Runner Mixed 2:32:02
2 65 Aerobic Power Male 2:38:15
3 33 Redline Overlords Male 2:43:24
4 198 4 Fabulous Frolicking Females! Female 2:59:17
5 123 Powered by Cookies Mixed 3:01:15
6 95 The Dashing Dromaeosaurs Mixed 3:05:57
7 16 Rock Gear Mixed 3:08:01
8 156 WTF's Male 3:10:25
9 143 Total recall Mixed 3:11:39
10 163 Fresh from Rehab Mixed 3:16:13
11 38 Tonight on MacGyver Mixed 3:20:19
12 60 Coconut Bangers' Ball Male 3:20:32
13 119 Rum Runners Mixed 3:22:18
14 42 The Great White North Mixed 3:24:55
15 172 Bear Naked Male 3:28:08
16 5 Midnight Express Mixed 3:31:11
17 93 Mountian MAZness Mixed 3:31:59
18 170 S-Club 7 Female 3:33:12
19 149 The Justice League Mixed 3:33:19
20 181 Dirt Divas Female 3:33:48
21 205 Pheidippides Children Mixed 3:35:03
22 72 The Thundering Herd Mixed 3:36:19
23 6 Speedy Beavers Female 3:39:53
24 196 Crazy Soles Female 3:39:57
25 59 We are sofa king lost Danuta Mixed 3:41:43
26 41 Addicted to Dihydrogen Monoxide Mixed 3:42:43
27 166 Playground Bullies Male 3:44:23
28 7 Forsyth and Sons Mixed 3:45:12
29 111 Synergy Female 3:47:35
30 171 Next year we train.. Mixed 3:47:38
31 120 The Running Dead Mixed 3:47:58
32 126 Off the Rocker Mixed 3:49:31
33 36 Team to be named later Mixed 3:50:00
34 50 Well Hungarians Male 3:51:21
35 11 mc casbn Mixed 3:52:11
36 18 Something Wicked This Way Runs Mixed 3:52:59
37 184 J team Female 3:53:21
38 59 Oleg Tabelev Male 3:53:24
39 128 Teck Mixed 3:53:30
40 178 Thank you Cochrane! Mixed 3:53:32
41 28 Rhymes With Bucket Mixed 3:53:36
42 153 Dynastream Seven Mixed 3:53:38
43 199 Seven Sinister Survivors Mixed 3:53:41
44 164 F.E.A.R Mixed 3:54:32
45 98 Summit Sisters Female 3:54:57
46 150 The Cruisers Male 3:55:05
47 183 Fast Trax Trail Team Mixed 3:55:26
48 167 Dynamic Duo Mixed 3:55:48
49 145 FORMULA 7 Mixed 3:55:52
50 129 Finewiners Male 3:55:59
51 174 Dangerous Divas Female 3:56:35
52 168 Tri-umph over Sinister 7 Mixed 3:56:51
53 136 TOTAL PACKAGE Mixed 3:57:37
54 177 I thought this was a bike race! Female 3:58:03
55 66 Scrambled Legs and Achin' Mixed 3:58:54
56 122 Rauschning Mixed 3:59:00
57 77 Pure Insanity Mixed 3:59:05
58 19 SOF Edmonton Mixed 3:59:38
59 13 Got Nitro? Mixed 3:59:40
60 96 RWA II Mixed 4:01:05
61 134 Lame Ducks Mixed 4:01:44
62 31 Sure-footed flatlanders Mixed 4:02:04
63 108 Broken Parts Female 4:02:33
64 109 The Animals Mixed 4:03:03
65 62 myasses dragon Mixed 4:03:12
66 51 Suffering From Insanity Mixed 4:03:20
67 162 Ultra Dumb Mixed 4:03:40
68 187 Beavers & Bucks Mixed 4:03:41
69 99 R We Nuts? Mixed 4:04:14
70 116 The Cruisettes Female 4:04:15
71 46 Collective Soles Mixed 4:04:25
72 54 Allwest Recycled Runners Mixed 4:04:41
73 116 Joe Huising Male 4:04:41
74 90 Real Housewives of Hastings Lake Female 4:06:51
75 48 EH3 Again Mixed 4:07:00
76 17 Twinkle Toes Mixed 4:07:20
77 105 Run (through the) Forest, Run! Mixed 4:08:29
78 182 Spider Monkies Mixed 4:08:38
79 2 Your Pace or Mine Mixed 4:08:45
80 57 Estrogen Rush Female 4:09:19
81 55 Nerds and Ninjas Mixed 4:10:23
82 130 Seven Super Stoked Sinners Seriously Shred Sneaks Mixed 4:11:12
83 107 RWA IV Mixed 4:11:30
84 23 Darin Bentley Male 4:11:31
85 180 DreamRunners Mixed 4:12:12
86 71 Spirit Runners Mixed 4:12:31
87 10 Michael Heath Male 4:13:07
88 23 COUGAR BAIT Male 4:13:17
89 161 SS Mixed 4:14:18
90 43 Wii Not Fit Mixed 4:14:33
91 133 Lucky Seven Female 4:14:49
92 127 RWA - Fortitude Mixed 4:15:05
93 22 A Murder of Runners Mixed 4:16:05
94 81 Fringe Monkeys Mixed 4:16:24
95 176 It's not a Picnic, You Know! Mixed 4:16:26
96 25 Sweet Beaver Male 4:16:33
97 43 Peter Taylor Male 4:16:48
98 29 Tech Pro 2.0 Mixed 4:17:38
99 142 Wodzillas Female 4:18:05
100 121 RWA V Mixed 4:19:10
101 159 Go Go Girls Female 4:20:39
102 89 Jeff Hunter Male 4:21:11
103 202 Core Models Male 4:21:30
104 34 Team Redundancy Team Mixed 4:21:43
105 79 Honey Badgers Mixed 4:21:52
106 100 Sprinters Walkers and Trash Talkers Mixed 4:22:32
107 89 Mister's, blisters & one sister Mixed 4:22:34
108 88 Scenic Route My Ass! Mixed 4:23:25
109 101 WAR MACHINES! Mixed 4:23:59
110 84 Sculpt Conditioning Team Alpha Mixed 4:25:29
111 175 Fuelled by Beer Mixed 4:25:32
112 117 teck's mechs Male 4:25:53
113 44 SOF Girls Gone Trail 2012 Female 4:25:54
114 140 Can You See My Swass Mixed 4:26:01
115 135 RWA - Pants Party Mixed 4:27:22
116 37 Twisted Blister Mixed 4:27:47
117 179 The Worst of Sinners Mixed 4:28:07
118 15 Sinister Attack Squad Mixed 4:28:20
119 132 1 Svc Bn 2 Mixed 4:29:24
120 153 Jenny Philip Female 4:29:25
121 137 Sinnin' All Night Long Mixed 4:30:00
122 78 One More Mile... Mixed 4:30:24
123 21 Smooth Operators Male 4:31:23
124 169 Crash Test Dummies do Sin 7 Mixed 4:31:44
125 3 Ponoka Path Pounders V Mixed 4:32:00
126 8 I Thought This Was A 5K Mixed 4:32:16
127 13 Devin Featherstone Male 4:32:23
128 188 Sin Sisters Female 4:32:36
129 143 Abi Moore Female 4:32:43
130 186 Rocks + Logs (aka Shelley made me do it) Mixed 4:33:05
131 12 EH3 Mixed 4:33:16
132 58 Witless Tardy Futile Mixed 4:33:43
133 27 Team No Name Mixed 4:34:13
134 195 So You Think You Can Run? Mixed 4:34:14
135 52 Chicks on the fly Female 4:34:34
136 9 I got 99 problems but a hill ain't one Mixed 4:35:04
137 80 A Scots, A Paddy and A Cloggie Mixed 4:36:00
138 119 Terry Schwengler Male 4:36:57
139 32 Sinister Skirts Female 4:37:11
140 49 Fleet of Feet V Mixed 4:37:19
141 94 SOF EDM Platoon 1 Mixed 4:38:26
142 131 SOF EDM Platoon 2 Mixed 4:38:37
143 37 Jonathan Davidow Male 4:38:42
144 152 Kiss My Asphalt Mixed 4:38:51
145 144 JBF Believers Female 4:39:13
146 92 JBF - Victorious Secret Female 4:39:17
147 8 Andrew Forrest Male 4:40:56
148 68 Suck It Up Princesses Female 4:41:00
149 7 Reid Roberts Male 4:42:00
150 4 FFA Mixed 4:42:03
151 15 Greg Sumka Male 4:42:04
152 103 Trail Nuts Mixed 4:42:05
153 82 Republic of Buckle Mixed 4:43:41
154 102 Runners With Attitude Mixed 4:43:51
155 76 Braindead Mixed 4:44:03
156 110 BEARLY SOBER Mixed 4:44:32
157 113 Sole Survivors Mixed 4:45:21
158 24 Captain Miserable and the Creeps Mixed 4:45:40
159 75 Ultra girls Female 4:45:40
160 165 The Couilleys Mixed 4:46:01
161 86 On The Rocks Mixed 4:46:31
162 114 Really Really Ridiculously Good Looking People Mixed 4:46:50
163 39 JBF - Misters, Sisters & Blisters Mixed 4:47:14
164 46 Mike Moore Male 4:47:30
165 35 Friends with Benefits Mixed 4:47:36
166 146 SOF EDM Platoon 3 Mixed 4:48:30
167 139 7wonderz Female 4:49:17
168 197 Running Wild: And Lovin' It Mixed 4:49:56
169 91 Honey Badgers Male 4:51:27
170 203 In my flippy floppies Mixed 4:51:42
171 189 The Possibilities of 6 Mixed 4:53:56
172 118 The City Sinners Mixed 4:54:36
173 194 Team Awesome Mixed 4:54:53
174 69 Sculpt Conditioning Team Bravo Mixed 4:55:05
175 149 Tamara Zagustin Female 4:55:12
176 192 Glacial Erratics Female 4:55:23
177 191 Team Boots to Asses! Mixed 4:55:39
178 163 Dawn Hamel Female 4:55:45
179 45 Running Ravens Mixed 4:58:08
180 200 Buck Mountain Central School Mixed 5:00:55
181 107 Adam Yurkowski Male 5:01:35
182 124 Sweet Swass Mixed 5:01:56
183 97 Toque Mixed 5:02:04
184 159 joanne schmidt Female 5:03:16
185 10 1step 2step breathe repeat Mixed 5:03:17
186 103 Adam Hill Male 5:05:42
187 53 The Dirty Half Dozen + One Mixed 5:06:57
188 193 Team Clarke Male 5:07:59
189 56 What Fresh Hell Is This Mixed 5:09:07
190 11 Jason Cox Male 5:09:25
191 14 Alan Lam Male 5:09:26
192 63 JBF - Inglorious Fastards Mixed 5:10:13
193 1 JBF - The Fast and the Delirious Mixed 5:10:36
194 190 Tri Girls Female 5:11:04
195 9 Chad Stiles Male 5:12:46
196 152 kerri treherne Female 5:12:48
197 85 Sutherly Flow Mixed 5:13:32
198 141 RC Wetaskiwin Tigers Male 5:14:42
199 27 Paul Dube Male 5:15:33
200 20 Misters, Sisters, and Blisters Mixed 5:16:03
201 118 Shawn Wallich Male 5:17:46
202 24 Rick Minett Male 5:21:48
203 151 Go Figure Female 5:21:59
204 44 Alan Barry Male 5:22:47
205 173 Bloody Penguins Mixed 5:26:15
206 157 Stacey Shand Female 5:26:20
207 84 Devon Kiernan Male 5:26:34
208 160 caroline toews Female 5:26:36
209 115 Marc Hayward Male 5:27:21
210 70 Hill Humpers Mixed 5:27:39
211 47 Every Day We're Shufflin' Mixed 5:31:09
212 125 The Scallywaggin' Rapscallions Mixed 5:32:09
213 36 Andrew Skarsgard Male 5:33:50
214 39 Don Wheatcroft Male 5:34:43
215 97 Collin Woehl Male 5:35:34
216 147 Fast and Furious Mixed 5:36:40
217 30 SICK SIX! Mixed 5:37:06
218 154 Two Sinners and the Newbies Mixed 5:38:20
219 155 Love the Pain Mixed 5:39:28
220 106 Fast Friars Mixed 5:41:28
221 19 Ryan Peebles Male 5:42:36
222 73 Runners Anonymous Mixed 5:42:56
223 76 John Barron Male 5:43:22
224 99 Eric Sherritt Male 5:44:30
225 83 Run Forest Run! Mixed 5:45:40
226 71 George Duffy Male 5:45:57
227 87 Richard Raymond Male 5:47:06
228 162 Jackie Zimmerman Female 5:48:01
229 61 Cookes Recipie For Disaster Mixed 5:49:11
230 141 Mia Atienza Female 5:49:28
231 32 Scott Hutton Male 5:50:58
232 22 Matthew Kinzel Male 5:51:30
233 60 Adrian Smith Male 5:52:56
234 122 Mike Treloar Male 5:52:56
235 51 Craig Strain Male 5:53:10
236 123 Erik Allen Male 5:55:23